www.pogodaiklimat.ru

Погода и климат >> Архив погоды >> Французская Полинезия >> Bora-Bora Airport


ПОГОДА в Bora-Bora Airport

  • Прогноз погоды в Bora-Bora Airport
  • Монитор погоды в Bora-Bora Airport
  • Климат города

АРХИВ ПОГОДЫ в Bora-Bora Airport

Время (UTC), дата Ветер
(напр.,м/с)
 
Видим.   Явления Облачность Т
(С)
Тd
(С)
f
(%)
Тe
(С)
Тes
(С)
Комфортность P
(гПа)
Po
(гПа)
Тmin
(С)
Tmax
(С)
R
(мм)
S
(см)
01 16.03 В 6
{10}
35 км н/о +29.4 +24.9 77 +42 +42 опасность
перегрева
1010.8 1010.5 0.4
02 16.03 В 6
{9}
35 км н/о +30.5 +25.1 73 +44 +44 опасность
перегрева
1010.6 1010.3
03 16.03 СВ 4 35 км н/о +29.0 +24.6 77 +41 +41 опасность
перегрева
1011.0 1010.7 0.4
04 16.03 В 6
{8}
45 км н/о +28.3 +24.3 79 +40 +40 очень
душно
1011.6 1011.3
05 16.03 В 5
{7}
40 км н/о +28.4 +24.6 80 +40 +40 очень
душно
1012.5 1012.2
06 16.03 В 4 45 км 8/3 660 м
[]
+28.6 +24.6 79 +41 +41 опасность
перегрева
1012.8 1012.5 +28.0 +31.9
08 16.03 СВ 7
{9}
40 км н/о +28.0 +24.8 83 +40 +40 очень
душно
1013.7 1013.4 0.2
07 16.03 В 4
{9}
60 км н/о +27.2 +24.3 84 +38 +38 очень
душно
1013.6 1013.3 0.0
09 16.03 В 4 30 км н/о +28.1 +24.5 81 +40 +40 очень
душно
1013.7 1013.4 0.2
10 16.03 В 5
{9}
20 км 10/10 300 м
[]
+28.0 +24.6 82 +40 +40 очень
душно
1013.2 1012.9
11 16.03 СВ 10
{14}
6000 м слабый дождь 10/10 300 м
[]
+26.1 +23.8 87 +36 +36 очень
душно
1013.0 1012.7 0.4
12 16.03 В 3 35 км н/о +26.8 +24.6 88 +38 +38 очень
душно
1012.0 1011.7 4
14 16.03 СВ 8
{12}
17 км н/о +26.4 +22.9 81 +35 +35 очень
душно
1012.0 1011.7
13 16.03 В 7
{9}
40 км н/о +27.8 +24.2 81 +39 +39 очень
душно
1011.8 1011.5
15 16.03 В 3 26 км н/о +27.5 +24.7 85 +39 +39 очень
душно
1012.3 1012.0 2
16 16.03 В 6
{9}
27 км н/о +27.2 +23.9 82 +37 +37 очень
душно
1012.9 1012.6
17 16.03 СВ 7
{10}
14 км слабый дождь 9/9 300 м
[]
+26.5 +24.0 86 +37 +37 очень
душно
1013.8 1013.5 0.4
18 16.03 В 2 35 км н/о +27.9 +24.3 81 +39 +39 очень
душно
1014.4 1014.1 +25.6 +28.7 0.6
20 16.03 В 6
{10}
40 км н/о +30.1 +25.4 76 +44 +44 опасность
перегрева
1014.2 1013.9
19 16.03 В 7
{9}
35 км н/о +29.9 +25.9 79 +45 +45 опасность
перегрева
1014.3 1014.0
21 16.03 В 4 30 км н/о +30.6 +25.7 75 +45 +45 опасность
перегрева
1013.8 1013.5
23 16.03 В 9
{12}
30 км н/о +30.4 +25.2 74 +44 +44 опасность
перегрева
1012.7 1012.4
00 17.03 В 5-6
{6}
30 км н/о +31.2 +25.5 72 +46 +46 опасность
перегрева
1012.2 1011.9
01 17.03 В 8
{11}
29 км н/о +30.7 +25.5 74 +45 +45 опасность
перегрева
1011.9 1011.6
02 17.03 В 8
{11}
25 км н/о +30.1 +24.5 72 +42 +42 опасность
перегрева
1011.9 1011.6
03 17.03 В 4 28 км н/о +29.5 +25.0 77 +43 +43 опасность
перегрева
1012.4 1012.1
04 17.03 В 7
{12}
27 км н/о +28.8 +25.2 81 +42 +42 опасность
перегрева
1013.0 1012.7
05 17.03 В 9
{12}
40 км н/о +28.5 +24.7 80 +41 +41 опасность
перегрева
1013.7 1013.4
06 17.03 СВ 5 28 км н/о +27.5 +23.5 79 +37 +37 очень
душно
1014.7 1014.4 +27.5 +31.3
08 17.03 В 9
{12}
45 км н/о +28.9 +24.2 76 +40 +40 очень
душно
1015.3 1015.0
07 17.03 В 8
{11}
30 км н/о +28.6 +24.6 79 +41 +41 опасность
перегрева
1015.1 1014.8
09 17.03 В 4 27 км н/о +28.7 +24.5 78 +41 +41 опасность
перегрева
1014.8 1014.5
10 17.03 В 8
{11}
26 км н/о +28.6 +24.4 78 +40 +40 очень
душно
1014.4 1014.1
11 17.03 СВ 9
{13}
35 км н/о +27.7 +23.9 80 +38 +38 очень
душно
1013.8 1013.5 0.0
12 17.03 В 5-6
{7}
29 км н/о +28.3 +23.7 76 +39 +39 очень
душно
1012.9 1012.6
14 17.03 В 9
{11}
29 км н/о +28.2 +24.2 79 +39 +39 очень
душно
1012.3 1012.0
13 17.03 В 9
{12}
28 км н/о +28.3 +23.7 76 +39 +39 очень
душно
1012.7 1012.4
15 17.03 В 3 24 км н/о +28.1 +24.3 80 +39 +39 очень
душно
1013.0 1012.7
16 17.03 В 7
{15}
35 км н/о +27.5 +23.7 80 +38 +38 очень
душно
1013.2 1012.9 1
17 17.03 В 6
{9}
24 км н/о +28.4 +24.4 79 +40 +40 очень
душно
1013.8 1013.5
18 17.03 В 3 27 км н/о +28.8 +24.4 77 +40 +40 очень
душно
1014.5 1014.2 +26.1 +29.3 1
20 17.03 В 6
{10}
35 км н/о +30.7 +24.8 71 +44 +44 опасность
перегрева
1014.5 1014.2
19 17.03 В 6
{9}
35 км н/о +29.8 +24.7 74 +42 +42 опасность
перегрева
1014.6 1014.3
21 17.03 В 4 30 км 8/8 750 м
[]
+31.2 +24.8 69 +44 +47 опасность
перегрева
1014.2 1013.9
22 17.03 В 8
{11}
30 км н/о +31.5 +24.9 68 +45 +45 опасность
перегрева
1013.1 1012.8
00 18.03 В 4-5
{6}
27 км н/о +31.3 +24.4 67 +44 +44 опасность
перегрева
1012.0 1011.7
01 18.03 В 7
{12}
26 км н/о +30.4 +24.3 70 +42 +42 опасность
перегрева
1011.8 1011.5
02 18.03 В 7
{12}
26 км н/о +30.6 +24.5 70 +43 +43 опасность
перегрева
1011.8 1011.5
03 18.03 В 3 27 км н/о +29.5 +25.0 77 +43 +43 опасность
перегрева
1011.8 1011.5 1
04 18.03 В 7
{12}
19 км н/о +27.9 +24.7 83 +40 +40 очень
душно
1012.4 1012.1 4
05 18.03 В 8
{11}
18 км н/о +28.1 +24.3 80 +39 +39 очень
душно
1012.9 1012.6
06 18.03 В 4 24 км н/о +28.3 +24.7 81 +40 +40 очень
душно
1013.6 1013.3 +26.8 +31.8 4
07 18.03 В 7
{13}
25 км н/о +28.1 +23.9 78 +39 +39 очень
душно
1013.9 1013.6 0.0
08 18.03 В 11-16
{16}
10 км 10/10 300 м
[]
+27.2 +24.3 84 +38 +38 очень
душно
1014.6 1014.3 0.0
09 18.03 В 3 14 км 8/8 2000 м
[]
+27.3 +24.2 83 +38 +38 очень
душно
1014.3 1014.0 0.2
10 18.03 СВ 8
{10}
29 км н/о +28.2 +23.8 77 +39 +39 очень
душно
1013.8 1013.5
11 18.03 С 7
{19}
2800 м слабый дождь 10/10 600 м
[]
+25.0 +23.1 89 +33 +33 очень
душно
1013.3 1013.0 2
12 18.03 С 2 25 км н/о +26.4 +23.7 85 +36 +36 очень
душно
1012.6 1012.3 2
14 18.03 В 3
{5}
50 км 8/8 300 м
[]
+25.9 +23.9 89 +36 +36 очень
душно
1012.1 1011.8 0.2
13 18.03 В 2
{4}
35 км н/о +25.6 +23.6 89 +35 +35 очень
душно
1012.1 1011.8 0.0
15 18.03 СВ 5 900 м сильный дождь 10/10 210 м
[]
+23.2 +22.0 93 +32 +32 очень
душно
1014.1 1013.8 27
16 18.03 В 6
{9}
н/о слабый дождь 9/9 1500 м
[]
+24.2 +22.6 91 +32 +32 очень
душно
1013.4 1013.1 2
17 18.03 В 4
{8}
н/о 8/0
[]
+25.0 +23.1 89 +33 +34 очень
душно
1012.7 1012.4 0.0
18 18.03 В 4 н/о н/о +26.6 +23.7 84 +36 +36 очень
душно
1012.9 1012.6 +22.8 +28.4 2
20 18.03 В 12
{15}
н/о 9/9 300 м
[]
+27.1 +23.8 82 +37 +37 очень
душно
1014.4 1014.1 0.0
19 18.03 В 10
{13}
н/о 8/8 300 м
[]
+27.2 +23.9 82 +37 +38 очень
душно
1014.0 1013.7
21 18.03 В 5 н/о н/о +27.4 +23.4 79 +37 +37 очень
душно
1013.1 1012.8 31
22 18.03 СВ 9
{13}
35 км н/о +27.5 +23.9 81 +38 +38 очень
душно
1013.2 1012.9
23 18.03 В 9
{12}
50 км 8/8 300 м
[]
+28.4 +24.4 79 +40 +40 очень
душно
1012.2 1011.9 0.0
00 19.03 В 5 30 км н/о +28.9 +24.0 75 +40 +40 очень
душно
1011.4 1011.1
02 19.03 В 7
{10}
24 км 8/8 600 м
[]
+28.9 +23.8 74 +40 +40 очень
душно
1011.5 1011.2
01 19.03 В 8
{12}
35 км 9/9 300 м
[]
+28.8 +24.6 78 +41 +41 опасность
перегрева
1010.7 1010.4
03 19.03 В 4 22 км 9/8 600 м
[]
+28.2 +24.2 79 +39 +40 очень
душно
1011.9 1011.6 2
04 19.03 В 9
{13}
35 км 10/10 600 м
[]
+27.0 +23.7 82 +37 +37 очень
душно
1012.4 1012.1 0.2
05 19.03 В 6
{14}
22 км 9/9 1500 м
[]
+26.4 +23.5 84 +36 +36 очень
душно
1013.2 1012.9
06 19.03 В 3 25 км 8/8
[]
+27.1 +23.6 81 +37 +37 очень
душно
1013.4 1013.1 +25.6 +29.6 0.2
08 19.03 В 6
{10}
21 км 10/0
[]
+27.5 +24.4 83 +39 +39 очень
душно
1013.7 1013.4
07 19.03 В 7
{10}
21 км 10/10 300 м
[]
+27.4 +24.3 83 +38 +38 очень
душно
1013.8 1013.5
09 19.03 В 3 30 км н/о +27.4 +23.8 81 +38 +38 очень
душно
1013.3 1013.0
10 19.03 В 6
{10}
15 км н/о +27.4 +24.1 82 +38 +38 очень
душно
1013.4 1013.1
11 19.03 В 8
{11}
17 км 10/10 300 м
[]
+26.7 +23.4 82 +36 +36 очень
душно
1013.0 1012.7 0.0
12 19.03 С 5 13 км слабый дождь 10/10 240 м
[]
+24.5 +22.7 90 +32 +32 очень
душно
1013.8 1013.5 0.2
13 19.03 С 7
{16}
н/о дождь 10/10 300 м
[]
+23.5 +21.9 91 +30 +30 очень
душно
1013.2 1012.9 12
14 19.03 С 5
{8}
н/о дождь н/о +23.8 +21.9 89 +31 +31 очень
душно
1013.5 1013.2 4
15 19.03 С 3 н/о дождь н/о +24.0 +21.7 87 +31 +31 очень
душно
1013.9 1013.6 21
16 19.03 С 3
{8}
н/о слабый дождь н/о +24.4 +22.1 87 +32 +32 очень
душно
1014.9 1014.6 2
18 19.03 С 2 н/о слабый дождь н/о +25.5 +23.0 86 +34 +34 очень
душно
1015.7 1015.4 +23.1 +28.0 2
20 19.03 ЮЗ 4
{6}
н/о слабый дождь н/о +27.5 +23.5 79 +37 +37 очень
душно
1014.7 1014.4 0.0
19 19.03 ЮЗ 4
{5}
н/о слабый дождь н/о +26.6 +23.3 82 +36 +36 очень
душно
1014.7 1014.4 0.0
21 19.03 ЮВ 1 н/о слабый дождь н/о +28.0 +23.4 76 +38 +38 очень
душно
1013.8 1013.5 23
22 19.03 Ю 5
{7}
н/о слабый дождь н/о +28.7 +23.4 73 +39 +39 очень
душно
1012.9 1012.6 0.0
23 19.03 Ю 2
{7}
н/о слабый дождь н/о +29.6 +23.5 70 +40 +40 очень
душно
1013.0 1012.7 0.0
00 20.03 ЮВ 3-3
{4}
н/о слабый дождь н/о +28.7 +23.8 75 +40 +40 очень
душно
1013.0 1012.7 23
02 20.03 В 5
{8}
60 км 9/0
[]
+28.8 +22.8 70 +38 +40 очень
душно
1013.0 1012.7
01 20.03 В 4
{6}
60 км 8/0
[]
+28.8 +24.1 76 +40 +44 очень
душно
1012.9 1012.6 0.0
03 20.03 ЮВ 4 60 км 10/10
[]
+28.1 +23.5 76 +38 +38 очень
душно
1012.9 1012.6 2
04 20.03 ЮВ 5
{9}
60 км н/о +27.7 +23.1 76 +37 +37 очень
душно
1013.2 1012.9
05 20.03 ЮВ 6
{9}
60 км 10/0
[]
+27.7 +23.3 77 +37 +37 очень
душно
1013.5 1013.2
06 20.03 ЮВ 3 60 км 10/10
[]
+27.9 +23.7 78 +38 +38 очень
душно
1014.5 1014.2 +25.5 +30.1
08 20.03 В 6
{10}
60 км 10/10 600 м
[]
+28.0 +24.2 80 +39 +39 очень
душно
1015.0 1014.7
07 20.03 ЮВ 5
{8}
60 км 10/0
[]
+27.7 +23.5 78 +38 +38 очень
душно
1014.8 1014.5
09 20.03 В 3 50 км 10/8 630 м
[]
+28.3 +24.3 79 +40 +40 очень
душно
1014.7 1014.4
10 20.03 В 6
{11}
25 км 10/10 600 м
[]
+28.3 +24.7 81 +40 +40 очень
душно
1014.0 1013.7
11 20.03 В 7
{11}
25 км н/о +28.2 +24.4 80 +40 +40 очень
душно
1013.3 1013.0
12 20.03 В 4 25 км 8/8 540 м
[]
+28.1 +24.7 82 +40 +40 очень
душно
1012.4 1012.1
13 20.03 В 6
{10}
40 км н/о +27.9 +24.3 81 +39 +39 очень
душно
1012.0 1011.7
14 20.03 В 6
{9}
24 км н/о +28.0 +24.4 81 +39 +39 очень
душно
1012.4 1012.1
15 20.03 В 3 28 км н/о +28.2 +24.6 81 +40 +40 очень
душно
1012.9 1012.6
16 20.03 В 5
{8}
15 км н/о +28.1 +24.7 82 +40 +40 очень
душно
1013.2 1012.9
17 20.03 В 7
{9}
26 км н/о +28.9 +25.1 80 +42 +42 опасность
перегрева
1013.9 1013.6
18 20.03 В 3 22 км н/о +29.5 +25.3 78 +43 +43 опасность
перегрева
1014.8 1014.5 +27.6 +29.5
19 20.03 В 7
{9}
40 км н/о +29.8 +26.0 80 +45 +45 опасность
перегрева
1014.9 1014.6
20 20.03 В 8
{10}
40 км н/о +31.0 +25.6 73 +46 +46 опасность
перегрева
1014.8 1014.5
21 20.03 В 4 35 км н/о +31.2 +25.8 73 +46 +46 опасность
перегрева
1014.4 1014.1
22 20.03 В 7
{10}
35 км н/о +31.3 +25.6 72 +46 +46 опасность
перегрева
1013.5 1013.2
23 20.03 В 7
{10}
50 км н/о +31.2 +25.3 71 +45 +45 опасность
перегрева
1012.6 1012.3
00 21.03 В 7
{11}
40 км н/о +31.2 +25.3 71 +45 +45 опасность
перегрева
1012.2 1011.9
01 21.03 В 6
{10}
30 км н/о +31.2 +25.5 72 +46 +46 опасность
перегрева
1012.0 1011.7
02 21.03 В 7
{9}
26 км н/о +30.4 +24.5 71 +43 +43 опасность
перегрева
1012.0 1011.7
03 21.03 В 3 18 км н/о +30.2 +25.3 75 +44 +44 опасность
перегрева
1012.3 1012.0
04 21.03 В 6
{10}
25 км н/о +29.0 +23.4 72 +39 +39 очень
душно
1013.0 1012.7
05 21.03 В 6
{10}
21 км н/о +28.9 +24.5 77 +41 +41 опасность
перегрева
1013.8 1013.5
06 21.03 В 5 22 км н/о +28.7 +24.3 77 +40 +40 очень
душно
1014.6 1014.3 +28.5 +31.6
07 21.03 В 6
{8}
18 км н/о +28.5 +24.3 78 +40 +40 очень
душно
1015.2 1014.9
08 21.03 В 6
{9}
45 км н/о +28.3 +24.3 79 +40 +40 очень
душно
1015.5 1015.2
09 21.03 В 3 40 км н/о +28.2 +24.2 79 +39 +39 очень
душно
1015.2 1014.9
11 21.03 ЮВ 6
{8}
50 км н/о +27.6 +23.8 80 +38 +38 очень
душно
1014.7 1014.4
10 21.03 В 6
{9}
45 км н/о +28.3 +24.3 79 +40 +40 очень
душно
1015.1 1014.8
12 21.03 В 4 50 км н/о +28.0 +24.4 81 +39 +39 очень
душно
1014.0 1013.7
13 21.03 В 7
{9}
55 км н/о +27.9 +23.7 78 +38 +38 очень
душно
1013.6 1013.3
14 21.03 В 7
{10}
35 км н/о +27.7 +23.9 80 +38 +38 очень
душно
1013.5 1013.2
15 21.03 В 4 45 км 8/8 540 м
[]
+27.7 +24.1 81 +39 +39 очень
душно
1013.7 1013.4
17 21.03 В 7
{10}
60 км н/о +28.1 +23.5 76 +38 +38 очень
душно
1014.7 1014.4
16 21.03 В 7
{12}
40 км н/о +27.7 +23.9 80 +38 +38 очень
душно
1014.2 1013.9
18 21.03 В 4 60 км н/о +29.4 +24.5 75 +42 +42 опасность
перегрева
1015.3 1015.0 +27.3 +29.4
19 21.03 В 8
{11}
60 км н/о +30.1 +24.0 70 +42 +42 опасность
перегрева
1015.6 1015.3
20 21.03 В 8
{11}
60 км н/о +30.8 +24.9 71 +44 +44 опасность
перегрева
1015.3 1015.0
21 21.03 В 4 55 км н/о +31.1 +24.7 69 +44 +44 опасность
перегрева
1014.8 1014.5
23 21.03 В 7
{10}
45 км н/о +31.2 +24.1 66 +43 +43 опасность
перегрева
1013.7 1013.4
22 21.03 В 7
{11}
50 км н/о +31.2 +24.3 67 +43 +43 опасность
перегрева
1014.2 1013.9
00 22.03 В 4-5
{5}
45 км н/о +31.3 +23.4 63 +42 +42 опасность
перегрева
1013.2 1012.9
01 22.03 В 6
{10}
40 км н/о +31.2 +24.3 67 +43 +43 опасность
перегрева
1012.9 1012.6
02 22.03 В 6
{9}
45 км н/о +30.6 +24.0 68 +42 +42 опасность
перегрева
1012.8 1012.5
03 22.03 В 3 50 км н/о +30.1 +24.0 70 +42 +42 опасность
перегрева
1013.0 1012.7
05 22.03 В 6
{8}
55 км н/о +28.6 +23.3 73 +39 +39 очень
душно
1013.9 1013.6
04 22.03 В 5
{9}
55 км н/о +29.0 +23.9 74 +40 +40 очень
душно
1013.3 1013.0
06 22.03 В 3 60 км н/о +28.5 +23.4 74 +39 +39 очень
душно
1014.7 1014.4 +28.4 +31.5
07 22.03 В 6
{8}
60 км н/о +28.4 +23.8 76 +39 +39 очень
душно
1015.3 1015.0
08 22.03 В 5
{9}
55 км н/о +28.0 +23.8 78 +39 +39 очень
душно
1015.6 1015.3 0.0
09 22.03 В 3 60 км н/о +27.4 +24.3 83 +38 +38 очень
душно
1015.4 1015.1 1
11 22.03 ЮВ 6
{9}
60 км н/о +27.2 +23.9 82 +37 +37 очень
душно
1014.8 1014.5
10 22.03 В 5
{9}
55 км н/о +27.7 +24.1 81 +39 +39 очень
душно
1015.2 1014.9
12 22.03 В 2-3
{4}
60 км н/о +27.3 +23.5 80 +37 +37 очень
душно
1014.4 1014.1
13 22.03 В 5
{8}
55 км н/о +26.8 +22.2 76 +35 +35 очень
душно
1014.0 1013.7
14 22.03 ЮВ 4
{8}
55 км н/о +26.8 +24.3 86 +37 +37 очень
душно
1013.9 1013.6
15 22.03 ЮВ 2 60 км н/о +26.8 +23.9 84 +37 +37 очень
душно
1014.0 1013.7
16 22.03 ЮВ 4
{5}
60 км н/о +26.9 +24.0 84 +37 +37 очень
душно
1014.3 1014.0
17 22.03 ЮВ 4
{5}
60 км н/о +28.0 +24.6 82 +40 +40 очень
душно
1014.9 1014.6 0.0
18 22.03 ЮВ 2 60 км н/о +28.3 +24.9 82 +41 +41 опасность
перегрева
1015.3 1015.0 +26.5 +28.6
19 22.03 ЮВ 5
{6}
60 км н/о +29.7 +25.0 76 +43 +43 опасность
перегрева
1015.5 1015.2
20 22.03 В 5
{8}
60 км н/о +30.6 +24.5 70 +43 +43 опасность
перегрева
1015.3 1015.0
21 22.03 В 5
{8}
60 км н/о +30.9 +24.5 69 +44 +44 опасность
перегрева
1014.6 1014.3
22 22.03 В 5
{8}
60 км н/о +31.0 +24.4 68 +43 +43 опасность
перегрева
1013.9 1013.6
23 22.03 В 5
{8}
60 км н/о +31.2 +24.1 66 +43 +43 опасность
перегрева
1012.7 1012.4

 

Местоположение метеостанции Bora-Bora Airport (Французская Полинезия): широта -16.43 долгота -151.70 высота над уровнем моря 3 м.

В архиве по умолчанию представлена погода в Bora-Bora Airport за последнюю неделю. Архивные данные за месяц целиком и за предыдущие месяцы, начиная с января 2011 года, Вы можете получить, выбрав интересующий диапазон дат из раскрывающегося списка и нажав кнопку "Ввод!".

Внимание! Время в таблицах - всемирное. Для получения местного времени необходимо прибавить поправку, которая в Bora-Bora Airport равна -10 ч.

Смотрите также архив погоды в соседних городах и на ближайших метеорологических станциях:

Погода в Tahiti-Faaa (Французская Полинезия) (256 км)
Погода в Takaroa (Французская Полинезия) (750 км)
Погода в Hereheretue (Французская Полинезия) (806 км)
Погода в Tubuai (Французская Полинезия) (806 км)
Погода в Aitutaki (Кука Острова) (889 км)
Погода в Rarotonga (Кука Острова) (1004 км)
Погода в Penrhyn (Кука Острова) (1070 км)
Погода в Hao (Французская Полинезия) (1161 км)
Погода в Manihiki (Кука Острова) (1209 км)
Погода в Rapa (Французская Полинезия) (1458 км)

Пояснения к столбцам:

Ветер - указаны скорость ветра в м/с - средняя за 10 мин, порывы в срок и между сроками (в фигурных скобках) и направление, откуда дует ветер: С - северный, СВ - северо-восточный, В - восточный, ЮВ - юго-восточный, Ю - южный, ЮЗ - юго-западный, З - западный, СЗ - северо-западный.
Видимость - горизонтальная дальность видимости в метрах или километрах. При видимости от 1 до 10 км при отсутствии осадков обычно наблюдается дымка, при ухудшении видимости до 1 км и менее - туман. В сухую погоду видимость может ухудшаться дымом, пылью или мглою.
Явления - указаны атмосферные явления, наблюдавшиеся в срок или в последний час перед сроком; фигурными скобками обозначены явления, наблюдавшиеся между сроками (за 1-3 часа до срока); квадратными скобками обозначены град или гололедные отложения с указанием их диаметра в мм.
Облачность - указаны через наклонную черту общая и нижняя облачность в баллах и высота нижней границы облаков в метрах; квадратными скобками обозначены формы облаков: Ci - перистые, Cs - перисто-слоистые, Cc - перисто-кучевые, Ac - высококучевые, As - высокослоистые, Sc - слоисто-кучевые, Ns - слоисто-дождевые, Cu - кучевые, Cb - кучево-дождевые. Подробнее классификацию облаков см. в Атласе облаков (PDF).
T - Температура воздуха - температура, измеренная на высоте 2 м над землей.
Td - Температура точки росы - температура, при понижении до которой содержащийся в воздухе водяной пар достигнет насыщения.
f - Относительная влажность воздуха - влажноcть воздуха, измеренная на высоте 2 м над землей.
Te - Эффективная температура - температура, которую ощущает одетый по сезону человек в тени. Характеристика душности погоды. При расчете учитывается влияние влажности воздуха и скорости ветра на теплоощущения человека.
Tes - Эффективная температура на солнце - температура, которую ощущает человек, с поправкой на солнечный нагрев. Характеристика знойности погоды. Зависит от высоты солнца над горизонтом, облачности и скорости ветра. Ночью, в пасмурную погоду, а также при ветре 12 м/с и более поправка равна нулю.
P - Атмосферное давление - приведенное к уровню моря атмосферное давление.
Po - Атмосферное давление - измеренное на уровне метеостанции атмосферное давление.
Tmin - Минимальная температура - минимум температуры воздуха на высоте 2 м над землей.
Tmax - Максимальная температура - максимум температуры воздуха на высоте 2 м над землей.
R - Количество осадков - Количество выпавших осадков, мм. При наведении курсора мыши на число - период времени, за который выпало указанное количество осадков.
S - Снежный покров - Высота снежного покрова, см. При наведении курсора мыши на число - состояние снежного покрова и степень покрытия местности в баллах.